Wind_Speed
13 16 18 19 20 22 25 27 28 29 30 30 31 32 33 35 38 40 42 43 44 45 45 45 44 44 42 41 40 39 38 37 35 34 33 32 31 30 29 27 26 24 24 23
15 19 21 23 24 26 27 27 28 30 31 32 34 36 38 41 43 45 46 47 48 49 49 49 48 47 45 43 41 40 38 36 35 34 33 31 29 28 27 25 23 21 20 19
19 21 22 25 26 26 27 28 29 31 33 34 37 41 44 46 48 50 51 53 53 54 53 52 51 50 49 46 43 41 39 37 35 33 32 30 28 26 25 23 21 20 17 16
22 23 25 27 27 27 28 29 30 33 36 39 42 45 48 51 53 55 57 58 58 58 58 57 55 53 51 49 45 42 40 37 35 33 31 30 27 25 23 21 19 17 15 15
28 29 28 28 29 30 32 34 35 38 42 45 48 50 53 55 58 60 61 62 62 62 62 61 60 57 54 51 47 43 40 38 35 33 31 29 26 24 21 20 17 15 13 12
31 32 32 32 31 34 38 41 42 46 50 53 55 58 58 60 61 62 63 64 64 64 64 63 61 59 55 51 48 44 40 38 35 32 31 29 26 23 21 19 17 15 13 11
32 34 37 37 38 40 43 47 49 53 56 59 61 63 65 66 67 67 68 68 68 67 66 65 62 60 56 52 49 46 42 39 36 33 31 28 25 23 21 19 17 15 13 11
34 37 39 41 44 46 48 51 54 57 60 63 65 67 68 69 70 71 71 70 70 69 66 63 60 58 54 52 49 46 43 40 38 35 31 28 25 24 22 20 18 16 14 12
37 40 43 46 48 51 53 56 59 61 64 66 69 70 71 72 72 71 71 69 67 64 60 57 55 54 52 50 48 47 45 42 39 36 32 29 26 24 22 21 19 16 15 13
41 43 46 49 51 53 56 59 62 65 68 71 72 73 73 73 72 69 65 61 57 55 53 51 50 50 49 48 47 47 47 43 40 36 33 31 28 25 23 21 19 18 16 15
44 46 48 51 53 56 59 63 65 68 71 73 73 72 71 68 63 57 53 50 48 48 47 46 45 45 46 47 46 45 44 43 41 38 35 32 29 27 25 23 21 19 18 17
45 48 51 54 56 60 63 66 68 70 71 70 68 65 60 54 50 47 45 43 45 45 44 43 43 41 42 43 44 43 43 44 41 38 36 34 31 29 27 25 23 21 20 19
47 50 54 58 61 64 67 69 70 70 67 64 59 54 48 44 43 42 42 43 44 44 43 43 41 38 38 39 40 39 40 42 41 38 36 36 33 30 28 26 24 22 21 20
52 56 60 63 66 69 71 71 68 63 58 53 49 45 42 41 40 40 41 43 44 43 43 41 38 35 34 35 36 37 39 40 39 38 38 36 34 32 30 27 25 24 22 21
57 61 65 68 70 71 70 66 60 54 49 45 42 39 38 38 39 39 41 42 42 41 41 38 35 32 30 30 32 35 37 37 37 37 38 37 35 33 31 29 27 26 24 22
61 64 68 70 70 68 64 59 54 49 44 40 37 37 36 37 38 39 40 41 41 40 38 35 32 27 25 26 28 32 35 35 37 37 38 37 35 34 32 29 27 26 25 23
66 69 71 72 70 66 60 54 49 45 41 38 37 36 36 37 38 39 39 40 41 39 37 33 27 23 22 22 26 29 32 34 36 37 38 37 35 34 32 30 28 27 26 25
69 70 70 69 66 61 55 49 45 41 38 37 36 36 36 38 39 40 40 40 39 37 35 30 23 20 19 21 24 28 31 34 35 36 37 35 34 34 32 30 28 27 26 25
69 69 67 64 60 56 50 46 42 39 37 36 36 36 37 39 41 41 41 40 39 36 31 26 21 17 18 21 24 28 30 34 35 35 36 35 34 33 33 31 29 27 26 24
67 65 62 58 54 49 45 42 39 37 35 35 35 36 38 39 40 41 40 39 37 33 28 23 18 14 16 20 24 29 31 33 34 34 34 34 33 33 32 31 29 27 25 25
64 61 57 54 48 43 40 39 38 35 33 34 36 37 39 40 40 41 40 37 33 30 24 19 15 13 17 22 26 30 31 34 34 34 33 32 32 32 32 30 29 28 26 25
61 57 53 49 43 39 37 36 35 34 33 35 36 39 40 40 40 40 38 35 30 27 21 15 12 13 18 24 28 30 32 34 33 32 32 30 30 30 30 29 27 26 26 25
57 53 49 45 40 37 35 34 33 33 34 36 38 40 41 41 40 39 37 32 28 24 18 11 10 14 21 26 29 31 33 33 32 31 29 28 27 26 26 25 25 24 24 23
53 49 45 42 39 36 33 32 31 33 35 36 39 41 42 41 39 38 35 30 25 20 13 8 11 16 23 28 31 32 33 33 33 30 28 26 25 24 23 23 22 22 21 20
50 46 43 40 37 34 32 31 31 33 34 36 39 40 40 40 38 35 31 26 21 15 7 6 13 19 25 30 31 33 33 34 33 30 28 25 23 22 21 21 21 20 19 18
48 45 41 39 37 34 33 32 33 34 36 37 38 39 39 37 34 32 28 22 16 9 2 8 15 22 27 30 32 33 34 34 33 30 28 25 23 21 19 19 18 18 17 17
46 42 39 36 33 32 32 32 34 35 37 39 39 39 37 34 32 30 24 17 10 3 4 11 18 23 28 31 34 35 34 34 33 31 27 25 23 21 19 17 16 16 16 16
Wind_Direction
298 293 294 294 292 290 289 290 290 292 294 299 302 303 302 301 300 300 300 300 300 301 301 302 303 304 304 304 304 305 305 306 304 303 302 301 300 297 293 292 290 289 291 288
304 299 300 298 299 298 296 296 295 296 298 301 300 299 298 298 297 296 296 296 296 297 297 298 299 300 301 301 301 302 302 302 302 300 299 299 298 298 295 292 291 290 292 289
309 304 302 301 305 303 301 299 297 296 296 296 293 293 292 292 292 292 293 294 295 295 296 296 297 297 297 297 297 298 298 298 298 298 296 296 295 293 293 291 290 289 287 283
313 310 310 310 310 307 303 299 297 295 294 293 291 291 292 293 293 293 293 294 294 294 294 294 293 293 293 292 292 292 292 292 292 293 292 291 290 288 287 286 286 284 283 280
319 317 315 314 314 310 304 299 299 297 295 294 294 293 291 291 292 292 292 292 291 291 290 290 289 289 288 287 286 286 285 285 285 285 286 284 284 282 279 279 279 279 278 275
318 316 314 312 311 306 302 300 301 298 296 295 295 294 294 292 291 290 290 289 288 288 288 288 287 285 283 281 280 279 278 277 276 276 277 277 277 273 270 270 270 270 269 267
315 311 308 309 306 303 299 298 298 297 297 297 297 297 297 296 295 294 293 292 291 290 290 288 285 281 279 276 273 271 270 268 267 266 267 267 267 264 261 261 262 261 258 257
309 306 303 304 301 300 299 299 298 298 298 298 298 297 297 297 296 296 296 296 294 293 291 289 285 280 276 272 267 263 262 259 257 257 257 257 256 254 252 253 254 252 250 247
304 303 303 303 303 302 302 301 300 300 299 299 299 299 299 299 299 299 298 297 296 294 292 290 285 278 273 268 262 255 253 252 250 249 248 246 246 244 244 245 246 244 240 235
305 305 304 304 304 303 303 302 302 302 302 302 301 301 300 300 300 299 298 297 296 296 294 290 285 278 272 264 257 252 248 245 245 244 241 238 236 235 235 237 236 235 232 227
306 307 306 305 306 306 305 304 304 303 302 301 300 300 300 300 300 299 298 298 298 298 296 293 287 278 269 262 255 250 245 240 239 236 232 229 228 227 228 229 228 227 224 219
310 310 309 309 309 308 307 305 304 302 301 301 301 302 302 301 301 302 301 301 302 301 298 295 290 280 269 259 254 249 241 235 233 229 224 222 221 220 222 224 222 220 218 216
312 312 312 312 312 310 308 307 306 306 306 306 307 307 307 307 306 306 306 306 306 304 303 299 293 284 270 258 252 245 237 230 227 222 218 215 215 214 215 216 216 214 214 214
318 317 316 315 314 312 311 311 311 312 312 312 311 311 309 309 309 309 310 310 309 307 305 302 296 286 270 258 248 240 232 225 221 217 214 212 210 210 210 210 211 210 210 211
321 320 318 317 316 315 315 315 315 316 315 313 312 311 310 310 311 312 313 313 312 310 307 303 298 288 270 255 244 233 225 219 215 212 209 207 207 207 206 206 207 208 208 209
322 321 319 319 319 319 319 319 318 319 318 316 315 314 314 314 315 316 317 317 316 313 310 305 298 285 267 250 239 228 221 216 211 207 204 204 204 204 203 203 204 205 207 209
324 324 323 323 322 323 322 321 321 320 320 318 317 317 317 317 318 318 319 319 319 316 312 308 297 281 262 246 232 220 215 212 206 202 201 203 203 202 202 201 202 205 207 210
327 326 325 324 324 324 323 322 321 320 319 319 318 319 320 320 321 321 321 320 320 318 315 308 297 279 256 237 224 212 207 205 202 199 198 199 200 200 200 200 202 206 209 212
328 326 325 324 324 323 323 323 322 322 320 319 319 321 322 322 323 323 322 322 321 319 317 309 296 276 246 224 212 204 201 198 197 194 195 196 197 198 199 201 204 207 211 213
328 326 325 325 324 324 324 323 323 323 322 321 321 322 323 323 324 324 323 323 322 319 316 306 291 265 231 211 200 197 196 195 194 193 194 197 198 197 199 201 205 210 215 217
328 327 326 326 326 326 325 325 325 325 325 325 324 324 325 326 326 326 326 324 322 320 314 303 281 246 215 201 193 192 193 191 189 190 192 194 196 198 200 203 207 212 217 222
329 328 328 328 329 328 327 328 328 328 328 327 326 325 326 327 327 328 327 326 323 322 316 298 263 227 202 191 188 188 187 185 186 187 188 190 193 195 198 202 206 211 217 222
330 330 330 332 332 332 332 331 330 330 329 329 328 328 329 329 328 328 328 327 323 322 315 288 237 208 190 184 183 183 182 182 181 180 182 185 187 190 194 198 202 207 212 218
332 332 333 334 334 333 333 332 331 331 331 330 330 330 331 331 330 329 328 328 325 323 311 263 207 189 180 177 178 180 179 179 176 175 176 178 182 186 188 191 193 198 203 207
335 335 335 335 334 334 334 334 334 333 333 333 333 333 333 333 333 332 330 329 327 324 300 216 187 179 175 174 174 175 175 175 174 174 175 176 178 180 182 184 186 190 195 201
337 336 336 336 336 335 335 336 336 337 337 337 337 338 338 338 337 335 334 333 330 329 261 180 175 173 172 172 172 173 173 174 174 173 172 173 174 176 179 183 186 188 192 196
337 336 336 336 336 335 336 337 339 339 340 340 341 342 342 342 341 341 341 342 341 345 161 165 169 169 169 168 170 170 172 173 173 173 174 176 177 179 181 185 188 191 196 201
Height
5851 5848 5845 5843 5841 5838 5835 5832 5829 5826 5823 5820 5817 5814 5810 5806 5801 5797 5792 5787 5782 5778 5773 5769 5765 5761 5757 5752 5748 5743 5739 5735 5730 5726 5722 5719 5715 5712 5709 5707 5705 5703 5700 5698
5847 5844 5841 5838 5835 5832 5829 5825 5822 5819 5816 5813 5809 5805 5800 5796 5791 5786 5781 5776 5771 5767 5762 5757 5753 5749 5745 5741 5737 5734 5730 5726 5722 5718 5715 5711 5708 5705 5702 5700 5698 5697 5695 5693
5843 5840 5836 5833 5830 5826 5822 5819 5816 5812 5810 5806 5801 5795 5790 5785 5780 5774 5769 5763 5758 5753 5748 5744 5740 5736 5733 5729 5726 5723 5720 5717 5713 5710 5707 5704 5701 5698 5696 5694 5693 5691 5689 5688
5837 5834 5830 5828 5823 5818 5814 5810 5807 5803 5799 5794 5790 5784 5778 5771 5765 5760 5754 5748 5743 5738 5733 5729 5725 5722 5719 5716 5714 5711 5709 5707 5704 5702 5699 5696 5694 5692 5690 5689 5688 5687 5685 5684
5830 5826 5823 5819 5814 5809 5804 5800 5798 5792 5787 5781 5776 5771 5765 5758 5750 5743 5737 5732 5726 5721 5717 5713 5709 5706 5704 5702 5700 5698 5697 5695 5693 5692 5690 5688 5687 5686 5685 5684 5683 5682 5682 5681
5822 5818 5814 5813 5808 5801 5796 5790 5786 5779 5773 5767 5760 5754 5750 5743 5736 5728 5721 5714 5709 5703 5698 5694 5690 5687 5685 5685 5684 5683 5683 5683 5682 5681 5681 5680 5679 5679 5679 5678 5678 5678 5678 5678
5815 5810 5805 5802 5797 5792 5787 5781 5773 5765 5758 5751 5743 5736 5729 5722 5714 5707 5700 5693 5686 5681 5676 5672 5668 5666 5665 5666 5666 5667 5668 5669 5669 5670 5670 5670 5671 5671 5672 5672 5672 5673 5674 5674
5807 5801 5798 5791 5785 5780 5774 5766 5758 5750 5742 5734 5726 5717 5709 5701 5693 5685 5677 5670 5662 5657 5652 5647 5643 5642 5643 5644 5646 5648 5651 5653 5655 5657 5658 5660 5661 5663 5665 5666 5667 5668 5669 5670
5799 5795 5787 5779 5773 5766 5758 5751 5742 5734 5725 5715 5707 5698 5689 5680 5672 5663 5655 5647 5640 5634 5630 5626 5621 5619 5620 5622 5625 5628 5632 5636 5640 5643 5646 5649 5652 5654 5657 5659 5661 5662 5664 5666
5789 5782 5776 5768 5760 5752 5744 5735 5725 5715 5705 5694 5685 5676 5667 5659 5650 5642 5634 5626 5619 5613 5608 5605 5601 5598 5598 5600 5604 5609 5614 5619 5624 5630 5634 5638 5641 5645 5649 5652 5654 5657 5659 5661
5778 5771 5763 5755 5746 5737 5728 5718 5707 5697 5686 5675 5665 5656 5647 5639 5631 5623 5616 5609 5602 5595 5590 5586 5582 5579 5579 5580 5584 5589 5595 5602 5608 5615 5621 5626 5631 5636 5640 5644 5648 5651 5654 5656
5767 5759 5751 5742 5732 5722 5712 5701 5690 5679 5669 5658 5645 5636 5628 5620 5613 5606 5599 5593 5587 5580 5574 5569 5565 5562 5561 5562 5566 5572 5578 5586 5593 5600 5608 5615 5621 5626 5631 5636 5640 5644 5648 5651
5756 5747 5737 5727 5717 5705 5694 5682 5670 5658 5647 5636 5627 5617 5610 5603 5597 5591 5585 5579 5572 5565 5559 5554 5550 5547 5546 5547 5551 5557 5563 5571 5578 5587 5596 5603 5610 5617 5623 5628 5633 5638 5642 5646
5742 5733 5723 5711 5699 5687 5674 5662 5650 5638 5628 5618 5610 5604 5597 5591 5585 5579 5573 5566 5559 5552 5546 5540 5536 5533 5532 5534 5538 5543 5551 5558 5567 5576 5585 5593 5601 5608 5614 5621 5626 5631 5636 5640
5729 5718 5706 5694 5682 5668 5655 5643 5632 5623 5614 5607 5599 5593 5587 5580 5575 5568 5562 5554 5547 5540 5534 5529 5524 5522 5520 5523 5526 5532 5539 5548 5557 5566 5576 5584 5592 5600 5607 5613 5620 5625 5630 5635
5716 5704 5691 5677 5664 5651 5638 5627 5618 5610 5602 5595 5589 5583 5576 5570 5564 5558 5551 5543 5536 5529 5523 5518 5514 5511 5511 5514 5518 5523 5530 5539 5548 5558 5567 5577 5585 5592 5599 5606 5613 5619 5624 5629
5701 5688 5674 5660 5647 5635 5624 5614 5605 5597 5591 5585 5579 5573 5567 5561 5554 5548 5541 5534 5526 5519 5513 5508 5504 5503 5504 5506 5510 5516 5524 5532 5542 5551 5561 5570 5579 5586 5594 5600 5607 5613 5619 5623
5684 5670 5656 5643 5631 5621 5612 5603 5595 5588 5582 5575 5570 5564 5558 5551 5545 5538 5531 5524 5517 5510 5504 5498 5496 5495 5497 5500 5504 5511 5519 5528 5537 5546 5555 5564 5573 5581 5588 5595 5601 5607 5613 5618
5670 5657 5644 5632 5620 5610 5601 5593 5586 5580 5573 5567 5561 5555 5549 5543 5535 5528 5521 5514 5507 5501 5496 5491 5489 5489 5490 5494 5500 5507 5515 5524 5533 5542 5551 5560 5568 5575 5583 5590 5596 5602 5607 5612
5659 5646 5634 5623 5612 5602 5593 5585 5578 5572 5566 5560 5553 5547 5541 5535 5527 5520 5512 5505 5498 5492 5488 5484 5483 5483 5485 5490 5497 5504 5512 5521 5530 5539 5547 5556 5564 5571 5578 5585 5591 5596 5601 5606
5648 5636 5624 5613 5604 5595 5586 5578 5571 5565 5559 5553 5546 5540 5533 5526 5519 5511 5503 5497 5491 5485 5481 5478 5477 5479 5482 5487 5494 5502 5510 5519 5528 5536 5545 5553 5560 5567 5574 5580 5586 5591 5596 5600
5637 5626 5614 5604 5596 5588 5580 5572 5565 5559 5553 5547 5540 5533 5525 5518 5511 5503 5496 5488 5483 5478 5474 5473 5473 5475 5479 5485 5492 5500 5508 5517 5526 5535 5543 5550 5557 5564 5570 5576 5582 5587 5591 5595
5628 5617 5606 5597 5588 5581 5574 5567 5560 5554 5548 5541 5533 5526 5518 5510 5502 5494 5488 5482 5476 5472 5469 5468 5469 5472 5476 5483 5490 5499 5508 5517 5525 5533 5541 5548 5555 5561 5567 5573 5578 5583 5587 5591
5620 5609 5600 5591 5583 5576 5569 5563 5556 5550 5543 5535 5527 5519 5510 5502 5495 5487 5480 5475 5470 5466 5464 5464 5465 5469 5474 5481 5490 5498 5507 5516 5525 5533 5540 5547 5553 5559 5565 5570 5575 5579 5583 5587
5612 5602 5593 5585 5578 5571 5564 5558 5552 5546 5538 5531 5523 5514 5505 5495 5487 5480 5474 5469 5465 5462 5461 5461 5464 5468 5474 5481 5489 5498 5507 5515 5524 5532 5539 5546 5552 5558 5563 5568 5572 5577 5581 5584
5605 5596 5587 5579 5572 5565 5559 5553 5547 5540 5533 5525 5517 5508 5499 5490 5482 5475 5469 5464 5461 5459 5459 5460 5464 5468 5475 5482 5490 5499 5507 5516 5525 5532 5539 5546 5552 5557 5562 5566 5570 5575 5579 5582
5601 5592 5584 5577 5570 5563 5557 5550 5543 5536 5528 5520 5511 5503 5495 5486 5478 5471 5465 5461 5459 5457 5458 5461 5465 5470 5476 5483 5492 5500 5509 5517 5525 5533 5539 5546 5551 5556 5561 5565 5569 5573 5577 5580